Tracking 29892 objects as of 21-Nov-2024
HD Live streaming from Space Station
objects crossing your sky now

STARLINK-31329

Track STARLINK-31329 now!
10-day predictions
STARLINK-31329 is classified as:


NORAD ID: 59169
Int'l Code: 2024-044T
Perigee: 494.4 km
Apogee: 496.0 km
Inclination: 43.0 °
Period: 94.4 minutes
Semi major axis: 6866 km
RCS: Unknown
Launch date: March 4, 2024
Source: United States (US)
Launch site: AIR FORCE EASTERN TEST RANGE (AFETR)
Your satellite tracking list
Your tracking list is empty




NASA's NSSDC Master Catalog

Two Line Element Set (TLE):
1 59169U 24044T   24325.98664693 -.00000726  00000-0 -17909-4 0  9998
2 59169  43.0007 260.1076 0001154 263.2716  96.8004 15.25907308 40962
Source of the keplerian elements: AFSPC